Regional Weather Roundup
Issued by NWS Northern Indiana

Home | Current Version | Previous Version | Graphics & Text | Print | Product List | Glossary On
Versions: 1 2 3 4 5 6 7 8 9 10 11 12 13 14 15 16 17 18 19 20 21 22 23 24 25 26 27 28 29 30 31 32 33 34 35 36 37 38 39 40 41 42 43 44 45 46 47 48 49 50
000
ASUS43 KIWX 220600
RWRIWX

KIWX WEATHER ROUNDUP
NATIONAL WEATHER SERVICE NORTHERN INDIANA
100 AM EST WED FEB 22 2017

NOTE: "FAIR" INDICATES FEW OR NO CLOUDS BELOW 12,000 FEET WITH NO
SIGNIFICANT WEATHER AND/OR OBSTRUCTIONS TO VISIBILITY.

* THESE STATIONS ARE NOT UNDER NWS QUALITY CONTROL. THEY ALSO MAY NOT
  REPORT WEATHER SUCH AS PRECIPITATION OR FOG.

INZ001>027-220700-
NORTHERN INDIANA

CITY           SKY/WX    TMP DP  RH WIND       PRES   REMARKS
GARY*          FOG       50  49  95 CALM      29.87S VSB 3/4
MICHIGAN CITY* CLEAR     52  52 100 CALM      29.87S
KNOX*          CLOUDY    50  34  53 S7        29.87S
SOUTH BEND     FOG       45  45 100 CALM      29.88S VSB 1/2
6HR MIN TEMP:  43; 6HR MAX TEMP:  55;

GOSHEN         PTCLDY    50  45  83 S7        29.87F
6HR MIN TEMP:  48; 6HR MAX TEMP:  54;

WARSAW*        MOCLDY    52  46  82 S3        29.88F
ANGOLA*        CLEAR     45  45 100 CALM      29.88F
FORT WAYNE     CLOUDY    54  49  83 S8        29.91F
6HR MIN TEMP:  49; 6HR MAX TEMP:  55;

PERU/GRISSOM   CLOUDY    55  55 100 S9        29.89F
6HR MIN TEMP:  50; 6HR MAX TEMP:  57;


$$
INZ028>050-220700-
CENTRAL INDIANA

CITY           SKY/WX    TMP DP  RH WIND       PRES   REMARKS
LAFAYETTE      MOCLDY    55  51  86 S7        29.89F
6HR MIN TEMP:  52; 6HR MAX TEMP:  57;

KOKOMO*        CLOUDY    52  50  93 S7        29.92F
6HR MIN TEMP:  50; 6HR MAX TEMP:  56;

MUNCIE*        CLOUDY    58  53  84 S8        29.92F
6HR MIN TEMP:  56; 6HR MAX TEMP:  62;

INDIANAPOLIS   CLOUDY    55  53  93 SE7       29.90F
6HR MIN TEMP:  55; 6HR MAX TEMP:  60;


$$
MIZ043>046-050>051-056>058-064>065-071>073-077>080-220700-
SOUTHWEST LOWER MICHIGAN

CITY           SKY/WX    TMP DP  RH WIND       PRES   REMARKS
BATTLE CREEK   PTCLDY    48  48 100 S3        29.88F FOG
6HR MIN TEMP:  46; 6HR MAX TEMP:  57;

BENTON HARBOR  FOG       45  44  97 CALM      29.87R VSB 1/4
6HR MIN TEMP:  45; 6HR MAX TEMP:  55;

COLDWATER*     PTCLDY    48  48 100 SE6       29.89F FOG
6HR MIN TEMP:  45; 6HR MAX TEMP:  53;

HILLSDALE*     PTCLDY    46  46 100 S5        29.89S FOG
HOLLAND        FOG       47  46  97 S3        29.87F VSB 1/4
6HR MIN TEMP:  47; 6HR MAX TEMP:  52;

GRAND RAPIDS   FOG       49  47  93 SE3       29.87F VSB<1/4
6HR MIN TEMP:  45; 6HR MAX TEMP:  52;

KALAMAZOO      CLEAR     48  45  89 S3        29.87F FOG
6HR MIN TEMP:  47; 6HR MAX TEMP:  56;

STURGIS*       CLOUDY    48  47  97 SE3       29.87F FOG
6HR MIN TEMP:  46; 6HR MAX TEMP:  53;

THREE RIVERS*  FOG       42  42 100 CALM      29.88F VSB<1/4
6HR MIN TEMP:  41; 6HR MAX TEMP:  54;


$$
OHZ001>008-015>018-024>025-220700-
NORTHWEST OHIO

CITY           SKY/WX    TMP DP  RH WIND       PRES   REMARKS
DEFIANCE       CLOUDY    47  46  97 CALM      29.91F FOG
6HR MIN TEMP:  46; 6HR MAX TEMP:  53;

FINDLAY        CLOUDY    50  45  83 S7        29.91F
6HR MIN TEMP:  49; 6HR MAX TEMP:  58; 6HR PCP: TRACE;

TOLEDO EXPRESS FOG       45  45 100 CALM      29.90F VSB 1/4
6HR MIN TEMP:  44; 6HR MAX TEMP:  54;

TOLEDO METCALF PTCLDY    47  46  97 CALM      29.92S FOG
6HR MIN TEMP:  45; 6HR MAX TEMP:  51;

LIMA           CLOUDY    55  52  89 S8        29.93S
6HR MIN TEMP:  54; 6HR MAX TEMP:  59;


$$
AND FOR LAKE MICHIGAN COASTAL AND OPEN LAKE BUOY OBSERVATIONS

STATION/POSITION TEMP    WIND        PRES    VSBY  WAVE
                 AIR SEA DIR/SP/G                  HT/PER
                 (F)     (DEG/KT/KT) (MB)    (MI)  (FT/S)
CALUMET HARBOR    54     180/  3/  5 1010.7F
MICHIGAN CITY     55     150/ 12/ 14   N/A
BURNS HARBOR      53     190/  7/  9 1011.9S

$$
&&



USA.gov is the U.S. government's official web portal to all federal, state and local government web resources and services.